• Processing (Info)

  • MPEC 2006-V56 : 2006 VE13

    The following Minor Planet Electronic Circular may be linked-to from your own Web pages, but must not otherwise be redistributed electronically.

    A form allowing access to any MPEC is at the bottom of this page.


    Read MPEC 2006-V55 Read MPEC 2006-V57


    M.P.E.C. 2006-V56                                Issued 2006 Nov. 14, 20:35 UT
    
         The Minor Planet Electronic Circulars contain information on unusual
             minor planets and routine data on comets.  They are published
       on behalf of Commission 20 of the International Astronomical Union by the
              Minor Planet Center, Smithsonian Astrophysical Observatory,
                              Cambridge, MA 02138, U.S.A.
    
                 Prepared using the Tamkin Foundation Computer Network
    
                                  MPC@CFA.HARVARD.EDU
              URL http://cfa-www.harvard.edu/iau/mpc.html  ISSN 1523-6714
    
                                       2006 VE13
    
    Observations:
         K06V13E* C2006 11 13.22330 02 45 35.35 +05 59 58.3          18.4 V EV056703
         K06V13E  C2006 11 13.22978 02 45 48.60 +06 04 29.1          18.1 V EV056703
         K06V13E  C2006 11 13.23624 02 46 01.77 +06 08 58.5          17.7 V EV056703
         K06V13E  C2006 11 13.24270 02 46 14.55 +06 13 23.9          19.1 V EV056703
         K06V13E  C2006 11 13.27648 02 47 21.91 +06 36 21.3          18.1 V EV056703
         K06V13E  C2006 11 13.27690 02 47 22.77 +06 36 38.6          18.3 V EV056703
         K06V13E  C2006 11 13.27730 02 47 23.53 +06 36 55.0          17.8 V EV056703
         K06V13E  C2006 11 13.39262 02 51 03.16 +07 50 44.3          18.4 V EV056703
         K06V13E  C2006 11 13.39303 02 51 04.03 +07 51 00.5          18.1 V EV056703
         K06V13E  C2006 11 13.39345 02 51 04.78 +07 51 17.2          18.3 V EV056703
         K06V13E  C2006 11 13.39387 02 51 05.61 +07 51 31.6          18.6 V EV056703
         K06V13E  C2006 11 14.17532 03 12 18.23 +14 03 51.9          18.8 V EV056G96
         K06V13E  C2006 11 14.18138 03 12 25.15 +14 06 07.0          18.8 V EV056G96
         K06V13E  C2006 11 14.18757 03 12 32.15 +14 08 24.3          18.6 V EV056G96
         K06V13E  C2006 11 14.19382 03 12 39.16 +14 10 42.0          18.8 V EV056G96
         K06V13E  C2006 11 14.21542 03 13 03.14 +14 18 34.4          18.6 V EV056G96
         K06V13E  C2006 11 14.21567 03 13 03.43 +14 18 39.7          18.5 V EV056G96
         K06V13E  C2006 11 14.21591 03 13 03.68 +14 18 44.9          18.7 V EV056G96
         K06V13E  C2006 11 14.21616 03 13 03.93 +14 18 50.3          18.9 V EV056G96
         K06V13E  C2006 11 14.26302 03 13 54.38 +14 35 29.9          19.2 R EV056854
         K06V13E  C2006 11 14.26924 03 14 00.90 +14 37 40.1          19.4 R EV056854
         K06V13E  C2006 11 14.31907 03 15 08.79 +14 59 49.8          18.7 V EV056F84
         K06V13E  C2006 11 14.34381 03 15 33.80 +15 08 10.4                 EV056F84
         K06V13E  C2006 11 14.55156 03 19 06.69 +16 14 33.9          19   R EV056474
         K06V13E  C2006 11 14.55237 03 19 07.51 +16 14 48.8                 EV056474
         K06V13E  C2006 11 14.56395 03 19 18.14 +16 18 08.9                 EV056474
         K06V13E  C2006 11 14.56476 03 19 19.11 +16 18 23.5                 EV056474
         K06V13E  C2006 11 14.56568 03 19 19.73 +16 18 36.7                 EV056474
         K06V13E  C2006 11 14.56652 03 19 20.69 +16 18 57.7                 EV056474
    
    Observer details:
    474 Mount John Observatory, Lake Tekapo.  Observer A. C. Gilmore.  1.0-m f/7.7
        reflector + CCD.
    703 Catalina Sky Survey.  Observer R. E. Hill.  Measurers E. C. Beshore,
        E. J. Christensen, G. J. Garradd, A. R. Gibbs, A. D. Grauer, R. E. Hill,
        R. A. Kowalski, S. M. Larson, R. H. McNaught.  0.68-m Schmidt + CCD.
    854 Sabino Canyon Observatory, Tucson.  Observer J. E. McGaha.  0.36-m f/10.0
        Schmidt-Cassegrain + CCD.
    F84 Hibiscus Observatory, Punaauia.  Observer N. Teamo.  Measurer J. C. Pelle.
        0.35-m f/3.88 Schmidt-Cassegrain + 1392x1040 CCD.
    G96 Mt. Lemmon Survey.  Observer R. A. Kowalski.  Measurers E. C. Beshore,
        E. J. Christensen, G. J. Garradd, A. R. Gibbs, A. D. Grauer, R. E. Hill,
        R. A. Kowalski, S. M. Larson, R. H. McNaught.  1.5-m reflector + CCD.
    
    Orbital elements:
    2006 VE13                                                Earth MOID = 0.0056 AU
    Epoch 2006 Sept. 22.0 TT = JDT 2454000.5                MPC
    M 354.63614              (2000.0)            P               Q
    n   0.38781217     Peri.  305.41437     +0.99806422     +0.03322923
    a   1.8623234      Node    52.73912     -0.00716157     +0.90107722
    e   0.5331883      Incl.    3.78727     -0.06177795     +0.43238369
    P   2.54           H   26.6           G   0.15           U   7
    Residuals in seconds of arc
    061113 703  0.1+  0.5+    061113 703  0.9+  0.3-    061114 854  0.1-  0.6+
    061113 703  0.2+  0.3+    061114 G96  0.1-  0.2-    061114 F84  0.1+  0.1+
    061113 703  0.9+  0.9+    061114 G96  0.1+  0.1-    061114 F84  0.4+  1.7+
    061113 703 (3.2-  1.1-)   061114 G96  0.0   0.0     061114 474  0.7-  1.0-
    061113 703  0.9-  0.5-    061114 G96  0.2-  0.2-    061114 474  0.3+  0.1-
    061113 703  0.4-  0.1-    061114 G96  0.1+  0.1+    061114 474  0.3-  0.6-
    061113 703  0.7-  0.2+    061114 G96  0.3+  0.0     061114 474 (2.9+  0.1+)
    061113 703  1.0-  1.7-    061114 G96  0.1+  0.0     061114 474 (0.3-  2.6-)
    061113 703  0.6+  0.6-    061114 G96  0.2-  0.0     061114 474 (2.4+  4.0+)
    061113 703  0.1+  0.7+    061114 854  0.3+  0.3+
    
    Ephemeris:
    2006 VE13                a,e,i = 1.86, 0.53, 4                   q = 0.8694
    Date    TT    R. A. (2000) Decl.     Delta      r     Elong.  Phase     V
    2006 11 11    23 00.02   -44 36.2    0.00963  0.991    97.0    82.4    19.4
    2006 11 12    01 29.97   -16 59.1    0.0102   0.997   137.9    41.7    18.3
    2006 11 13    02 36.38   +03 14.8    0.0146   1.004   163.0    16.7    18.3
    2006 11 14    03 08.17   +12 58.5    0.0206   1.010   174.6     5.3    18.6
    2006 11 15    03 26.12   +18 05.8    0.0272   1.016   178.5     1.5    19.0
    2006 11 16    03 37.49   +21 09.2    0.0339   1.023   175.9     3.9    19.7
    2006 11 17    03 45.29   +23 09.3    0.0409   1.029   174.1     5.6    20.2
    2006 11 18    03 50.95   +24 33.5    0.0479   1.036   173.0     6.6    20.6
    2006 11 19    03 55.22   +25 35.3    0.0549   1.043   172.4     7.2    20.9
    2006 11 20    03 58.54   +26 22.4    0.0620   1.050   172.1     7.5    21.2
    2006 11 21    04 01.20   +26 59.2    0.0692   1.057   171.9     7.6    21.5
    
    Kyle E. Smalley              (C) Copyright 2006 MPC           M.P.E.C. 2006-V56
    

    Read MPEC 2006-V55 Read MPEC 2006-V57


    MPEC number:

    Enter an MPEC number in one of the following forms:

    • 1997-B01 (the full form)
    • J97B01 (the packed version of the full form)
    • B01 (the abbreviated form)